Regional Weather Roundup
Issued by NWS Northern Indiana

Home | Current Version | Previous Version | Graphics & Text | Print | Product List | Glossary On
Versions: 1 2 3 4 5 6 7 8 9 10 11 12 13 14 15 16 17 18 19 20 21 22 23 24 25 26 27 28 29 30 31 32 33 34 35 36 37 38 39 40 41 42 43 44 45 46 47 48 49 50
000
ASUS43 KIWX 291000
RWRIWX

KIWX WEATHER ROUNDUP
NATIONAL WEATHER SERVICE NORTHERN INDIANA
600 AM EDT THU SEP 29 2016

NOTE: "FAIR" INDICATES FEW OR NO CLOUDS BELOW 12,000 FEET WITH NO
SIGNIFICANT WEATHER AND/OR OBSTRUCTIONS TO VISIBILITY.

* THESE STATIONS ARE NOT UNDER NWS QUALITY CONTROL. THEY ALSO MAY NOT
  REPORT WEATHER SUCH AS PRECIPITATION OR FOG.

INZ001>027-291100-
NORTHERN INDIANA

CITY           SKY/WX    TMP DP  RH WIND       PRES   REMARKS
GARY*          LGT RAIN  61  57  88 NE14G33   30.07R
SOUTH BEND     LGT RAIN  56  55  97 N15       30.06R
GOSHEN         LGT RAIN  57  54  89 N10       30.03R
ANGOLA*          N/A     55  43  62 N5        30.02S
FORT WAYNE     CLOUDY    56  53  90 NE8       30.01R

$$
INZ028>050-291100-
CENTRAL INDIANA

CITY           SKY/WX    TMP DP  RH WIND       PRES   REMARKS
KOKOMO*        CLOUDY    55  54  94 NE3       30.01R
MUNCIE*        CLOUDY    55  52  89 N3        29.99R FOG
INDIANAPOLIS   CLOUDY    55  52  89 NE5       29.98R

$$
MIZ043>046-050>051-056>058-064>065-071>073-077>080-291100-
SOUTHWEST LOWER MICHIGAN

CITY           SKY/WX    TMP DP  RH WIND       PRES   REMARKS
BATTLE CREEK   HVY RAIN  57  56  96 NE14      30.05S FOG
BENTON HARBOR  LGT RAIN  58  54  86 VRB5      30.07R
COLDWATER*     CLOUDY    57  57  99 N7        30.03S
HILLSDALE*     CLOUDY    55  54  94 N5        30.02R
HOLLAND        MOCLDY    60  53  77 NE7       30.11R
GRAND RAPIDS   CLOUDY    58  52  80 NE15      30.10R
KALAMAZOO      RAIN      57  54  89 N8        30.06S FOG
STURGIS*       CLOUDY    57  55  93 N8        30.03R
THREE RIVERS*  DRIZZLE   57  56  97 N5        30.05R

$$
OHZ001>008-015>018-024>025-291100-
NORTHWEST OHIO

CITY           SKY/WX    TMP DP  RH WIND       PRES   REMARKS
DEFIANCE       CLOUDY    57  54  89 N7        30.01R FOG
FINDLAY        CLOUDY    57  53  86 NE6       29.99R
TOLEDO EXPRESS MOCLDY    57  57 100 CALM      30.00S
TOLEDO METCALF CLOUDY    59  58  96 CALM      30.02R
LIMA           CLOUDY    55  55 100 E3        30.00R

$$
AND FOR LAKE MICHIGAN COASTAL AND OPEN LAKE BUOY OBSERVATIONS

STATION/POSITION TEMP    WIND        PRES    VSBY  WAVE
                 AIR SEA DIR/SP/G                  HT/PER
                 (F)     (DEG/KT/KT) (MB)    (MI)  (FT/S)
CALUMET HARBOR    63      20/ 16/ 22 1017.7R
MICHIGAN CITY     59      40/ 19/ 21   N/A
BURNS HARBOR      61      60/ 20/ 24 1017.9R
SAINT JOSEPH      59      40/  6/ 15 1018.3S
SOUTH LAKE BUOY   65 69   50/ 23/ 27 1018.0          7/ 7
4 MI NW BRIDGMAN  60 64   40/ 16/ 21 1018.3R         6/ 6
MICHIGAN CITY     62 65   50/ 17/ 23   N/A           7/ 7

$$
&&



USA.gov is the U.S. government's official web portal to all federal, state and local government web resources and services.